World > North America > United States > North Carolina

Laurel Park, North Carolina Regional Weather

Lat: 35.31N, Lon: 82.49W
Wx Zone: NCZ065
Warning NWS WEATHER ALERT - HARD FROST ADVISORY (More Info. Click Here) Warning
Feedback

Laurel Park, NC Regional Weather

Expires:201910240500;;179895
ASUS42 KRAH 240410
RWRRAH
NORTH CAROLINA WEATHER ROUNDUP
NATIONAL WEATHER SERVICE RALEIGH NC
1200 AM EDT THU OCT 24 2019

NOTE: "FAIR" INDICATES FEW OR NO CLOUDS BELOW 12,000 FEET WITH NO
SIGNIFICANT WEATHER AND/OR OBSTRUCTIONS TO VISIBILITY.


NCZ001-053-055-056-065-067-240500-
WESTERN NORTH CAROLINA
  
CITY           SKY/WX    TMP DP  RH WIND       PRES   REMARKS
ASHEVILLE      FAIR      42  36  79 CALM      30.28R                  
JEFFERSON      FAIR      40  33  75 SW3       30.27S                  
HICKORY        FAIR      48  41  76 CALM      30.25R                  
WILKESBORO     NOT AVBL                                               
RUTHERFORDTON  FAIR      43  43 100 CALM      30.26S                  
MOUNT AIRY     FAIR      44  40  86 CALM      30.27S                  
BOONE          FAIR      34  34 100 CALM      30.28S                  
$$
 

SKY/WX - Weather  TMP - Temperature  DP - Dew Point  RH - Relative Humidity
WIND - Wind Direction/Speed PRES - Barometric Pressure VSB - Visibility
WCI - Wind Chill Index E13G22 Wind - East Wind 13 mph/Gusts of 22 mph